FENGYUN 1C DEB, 30253

Orbit data source: Space-Track

FENGYUN 1C DEB, 30253 is space debris in SSO originally from a launch on Mon, 10 May 1999 UTC launched from the Taiyaun Space Center, China (TSC). Fengyun 1C debris stems from the Chinese weather satellite Fengyun-1C, which was intentionally destroyed by a Chinese anti-satellite missile in 2007. This event dramatically increased the amount of space debris, with thousands of trackable fragments posing hazards to satellites and human spaceflight. The Fengyun 1C debris cloud has become a focal point in discussions about space sustainability and the need for international regulations to prevent the creation of new debris.

Loading next visibility...
Identifier
30253, 1999-025XN
Orbit
SSO
Country
Flag of CNCN / PRC
Related business
Manufacturer
Unknown
Mission
Spacecraft
Bus & Motor
Unknown
Mass
Unknown
Launch date (UTC)
1999-05-10 (26 years ago)
Launch vehicle
Unknown
Launch site
Taiyaun Space Center, China (TSC)
Object type
Payload
Rocket body
Debris
Shape & HBR
Unknown shape, 0.1 m
Radar Cross Section
Small (<0.1 m²)

Expand to show TLE details & history
Last TLE update: 13 hours ago

TLE from 13 hours ago
0 FENGYUN 1C DEB
1 30253U 99025XN  25309.22080277  .00003116  00000-0  28495-2 0  9996
2 30253  98.7542  40.4583 0225214 141.0979 276.0259 13.72934826934991
Epoch: 2025-11-05T05:17Z
TLE epoch observation values (Epoch: 2025-11-05T05:17:57.359Z)
Latitude
53.72229°
Longitude
-95.77421°
Altitude
984.1 km
Speed
7.372 km/s
True Right ascension
01h 53m 38s
True Declination
53° 33' 47"
Sunlit
Object was in full shadow at epoch
Visualization orbit readout
Latitude
Unknown
Longitude
Unknown
Altitude
Unknown
Speed
Unknown
Apparent Right ascension
Unknown
Apparent Declination
Unknown
Sunlit
N/A
Visualization observer readout
Local Sidereal Time
14:13:02
Azimuth
Unknown
Elevation
Unknown
Doppler factor
Unknown
Orbital elements
Apogee altitude
1,152.132 km
Perigee altitude
820.418 km
Semi-major axis
7,364.412 km
Eccentricity
0.02252
Inclination
98.7542°
RAAN
40.4583°
Arg. of periapsis
141.0979°
True anomaly
273.45266°
Mean anomaly
276.0259°
Eccentric anomaly
274.73993°
Mean motion
3.43428 °/min
Orbital period
104.83 mins
BSTAR
0.0028495
Loading maneuver chart data...
Computing Atmospheric mass density...

Documentation

Showing up to 5 results
|